This is the latest recevied weather packets stored in our database for station/object WD4LSS. If no packets are shown the sender has not sent any weather packets the latest 10 day(s).
| Time | Temp. | Humidity | Pressure | Rain* | Wind** | Luminosity | Snow |
|---|---|---|---|---|---|---|---|
| 1777593617 | 19.44° C | 41% | 1010.9 hPa | 0 mm | - | - | - |
| 1777592137 | 20° C | 38% | 1010.6 hPa | 0 mm | - | - | - |
| 1777591517 | 20.56° C | 36% | 1010.5 hPa | 0 mm | - | - | - |
| 1777588816 | 22.22° C | 36% | 1010.2 hPa | 0 mm | - | - | - |
| 1777582516 | 23.33° C | 42% | 1009.4 hPa | 0 mm | - | - | - |
| 1777579536 | 22.78° C | 46% | 1009.8 hPa | 0 mm | - | - | - |
| 1777578916 | 22.78° C | 44% | 1010.1 hPa | 0 mm | - | - | - |
| 1777574116 | 22.78° C | 51% | 1010.3 hPa | 0 mm | - | - | - |
| 1777572616 | 22.22° C | 53% | 1010.3 hPa | 0 mm | - | - | - |
| 1777571416 | 22.22° C | 57% | 1010.2 hPa | 0 mm | - | - | - |
| 1777570836 | 21.67° C | 56% | 1010.3 hPa | 0 mm | - | - | - |
| 1777569916 | 21.67° C | 57% | 1010.4 hPa | 0 mm | - | - | - |
| 1777567216 | 21.11° C | 60% | 1010.9 hPa | 0 mm | - | - | - |
| 1777566036 | 20.56° C | 60% | 1011.2 hPa | 0 mm | - | - | - |
| 1777564815 | 19.44° C | 65% | 1011.4 hPa | 0 mm | - | - | - |
| 1777564216 | 19.44° C | 63% | 1011.5 hPa | 0 mm | - | - | - |
| 1777563918 | 19.44° C | 62% | 1011.5 hPa | 0 mm | - | - | - |
| 1777560637 | 17.22° C | 73% | 1011.9 hPa | 0 mm | - | - | - |
| 1777560017 | 16.67° C | 79% | 1011.8 hPa | 0 mm | - | - | - |
| 1777559117 | 15° C | 81% | 1011.8 hPa | 0 mm | - | - | - |
| 1777557637 | 13.89° C | 90% | 1011.6 hPa | 0 mm | - | - | - |
| 1777555518 | 13.33° C | 89% | 1012.3 hPa | 0 mm | - | - | - |
| 1777551317 | 12.78° C | 89% | 1011.8 hPa | 0 mm | - | - | - |
| 1777549817 | 13.33° C | 88% | 1011.3 hPa | 0 mm | - | - | - |
| 1777547117 | 12.78° C | 85% | 1010.5 hPa | 0 mm | - | - | - |
* Rain latest hour (hover to see other rain measurements)
** Current wind speed in m/s (hover to see current wind gust speed)